Showing default

HYPERFIELD-1B, 64552

Orbit data source: Space-Track

HYPERFIELD-1B, 64552 is a payload satellite owned by Kuva Space (FI) in SSO that was launched on Mon, 23 Jun 2025 UTC via an FALCON 9 launch vehicle from the Air Force Western Test Range (AFWTR). Payload-class satellites include a variety of spacecraft equipped with specific instruments for various scientific and technological missions. These include communications satellites like Starlink; space stations such as the ISS; scientific satellites like the Hubble; Earth observation satellites from companies like Planet Labs, Umbra, and HawkEye 360; GPS; miniature CubeSats for education and research; and military/defense satellites.

Loading next visibility...
Identifier
64552, 2025-135AA
Orbit
SSO
Country
Flag of FIFI / FIN
Related business
Manufacturer
Kuva Space
Mission
Operational Commercial Imaging
Bus & Motor
CUBESAT 6U, Unknown motor
Mass
12 kg wet, 12 kg dry
Launch date (UTC)
2025-06-23 (5 months ago)
Launch vehicle
FALCON 9
Launch site
Air Force Western Test Range (AFWTR)
Object type
Payload
Rocket body
Debris
Shape & HBR
Box + 2 Pan, 0.2 m
Radar Cross Section
0.092 m², Medium (>0.1 m² and < 1m²)

Expand to show TLE details & history
Last TLE update: 1 day ago

TLE from 1 day ago
0 HYPERFIELD-1B
1 64552U 25135AA  25312.83158957  .00008526  00000-0  40199-3 0  9994
2 64552  97.4525  65.3045 0001450  56.0395 304.0978 15.19727617 21388
Epoch: 2025-11-08T19:57Z
TLE epoch observation values (Epoch: 2025-11-08T19:57:29.338Z)
Latitude
Longitude
77.6767°
Altitude
509.192 km
Speed
7.61 km/s
True Right ascension
04h 21m 13s
True Declination
0° 00' 00"
Sunlit
Object was in full shadow at epoch
Visualization orbit readout
Latitude
Unknown
Longitude
Unknown
Altitude
Unknown
Speed
Unknown
Apparent Right ascension
Unknown
Apparent Declination
Unknown
Sunlit
N/A
Visualization observer readout
Local Sidereal Time
18:22:53
Azimuth
Unknown
Elevation
Unknown
Doppler factor
Unknown
Orbital elements
Apogee altitude
504.629 km
Perigee altitude
502.633 km
Semi-major axis
6,881.768 km
Eccentricity
0.00015
Inclination
97.4525°
RAAN
65.3045°
Arg. of periapsis
56.0395°
True anomaly
304.08404°
Mean anomaly
304.0978°
Eccentric anomaly
304.09092°
Mean motion
3.80183 °/min
Orbital period
94.69 mins
BSTAR
0.00040199
Loading maneuver chart data...
Computing Atmospheric mass density...
Loading historical data...
Loading historical data...
Loading historical data...
Loading historical data...
Loading historical data...
Loading historical data...
Loading historical data...

Documentation

Showing up to 5 results
|